TimeCDT,TemperatureF,Dew PointF,Humidity,Sea Level PressureIn,VisibilityMPH,Wind Direction,Wind SpeedMPH,Gust SpeedMPH,PrecipitationIn,Events,Conditions,WindDirDegrees,DateUTC
12:53 AM,66.0,64.0,93,30.12,9.0,Calm,Calm,-,N/A,,Clear,0,2012-10-04 05:53:00
1:53 AM,66.0,64.0,93,30.12,8.0,NE,3.5,-,N/A,,Clear,50,2012-10-04 06:53:00
2:53 AM,64.9,64.0,97,30.13,7.0,Calm,Calm,-,N/A,,Clear,0,2012-10-04 07:53:00
3:53 AM,64.9,64.0,97,30.14,6.0,NE,3.5,-,N/A,,Clear,50,2012-10-04 08:53:00
4:53 AM,64.0,63.0,96,30.15,5.0,ENE,3.5,-,N/A,,Clear,60,2012-10-04 09:53:00
5:53 AM,64.0,63.0,96,30.17,5.0,ENE,3.5,-,N/A,,Clear,60,2012-10-04 10:53:00
6:53 AM,63.0,62.1,97,30.17,4.0,ENE,3.5,-,N/A,,Clear,60,2012-10-04 11:53:00
7:53 AM,64.9,64.0,97,30.19,5.0,ENE,3.5,-,N/A,,Clear,60,2012-10-04 12:53:00
8:53 AM,70.0,68.0,93,30.21,8.0,East,4.6,-,N/A,,Clear,80,2012-10-04 13:53:00
9:53 AM,75.0,70.0,84,30.22,10.0,East,8.1,-,N/A,,Clear,90,2012-10-04 14:53:00
10:53 AM,80.1,66.9,64,30.22,10.0,ESE,6.9,-,N/A,,Clear,120,2012-10-04 15:53:00
11:53 AM,82.0,64.9,56,30.21,10.0,ESE,10.4,-,N/A,,Clear,110,2012-10-04 16:53:00
12:53 PM,82.9,62.1,49,30.19,10.0,Calm,Calm,-,N/A,,Clear,0,2012-10-04 17:53:00
1:53 PM,82.9,64.9,54,30.17,10.0,Variable,3.5,-,N/A,,Scattered Clouds,0,2012-10-04 18:53:00
2:53 PM,82.9,64.0,53,30.15,10.0,East,5.8,-,N/A,,Partly Cloudy,90,2012-10-04 19:53:00
3:53 PM,84.9,63.0,48,30.15,10.0,ESE,6.9,-,N/A,,Clear,120,2012-10-04 20:53:00
4:53 PM,82.4,62.6,51,30.14,10.0,East,6.9,-,N/A,,Clear,90,2012-10-04 21:53:00
5:53 PM,82.0,63.0,52,30.14,10.0,ENE,4.6,-,N/A,,Clear,60,2012-10-04 22:53:00
6:53 PM,75.9,66.0,71,30.14,10.0,Calm,Calm,-,N/A,,Clear,0,2012-10-04 23:53:00
7:53 PM,72.0,68.0,87,30.14,10.0,Calm,Calm,-,N/A,,Clear,0,2012-10-05 00:53:00
8:53 PM,70.0,66.0,87,30.15,10.0,Calm,Calm,-,N/A,,Clear,0,2012-10-05 01:53:00
9:53 PM,68.0,66.0,93,30.15,9.0,Calm,Calm,-,N/A,,Clear,0,2012-10-05 02:53:00
10:53 PM,66.9,64.9,93,30.16,10.0,Calm,Calm,-,N/A,,Clear,0,2012-10-05 03:53:00
11:53 PM,66.9,64.9,93,30.16,10.0,Calm,Calm,-,N/A,,Clear,0,2012-10-05 04:53:00